Missoula, MT

9:30 PM MDT on March 24, 2017 (GMT -0600)
Missoula International

Weather History for KMSO - January, 2013

Change the Weather History Date:

Sunday, January 13, 2013

  Actual Average Record
Temperature  
Mean Temperature 8 °F 25 °F  
Max Temperature 16 °F 33 °F 50 °F (1953)
Min Temperature 0 °F 18 °F -17 °F (1993)
Degree Days  
Heating Degree Days 57 40  
Month to date heating degree days 578 527  
Since 1 July heating degree days 3360 3699  
Cooling Degree Days 0 0  
Month to date cooling degree days 0 0  
Year to date cooling degree days 0 0  
Moisture  
Dew Point 4 °F    
Average Humidity 78    
Maximum Humidity 88    
Minimum Humidity 67    
Precipitation  
Precipitation T in 0.03 in 0.71 in (1913)
Month to date precipitation 0.79 0.39  
Year to date precipitation 0.79 0.39  
Snow  
Snow 0.10 in - - ()
Month to date snowfall 6.7  
Year to date snowfall 6.7  
Since 1 July snowfall 27.8  
Snow Depth 6.00 in    
Sea Level Pressure  
Sea Level Pressure 30.39 in    
Wind  
Wind Speed 2 mph (SE)    
Max Wind Speed 13 mph    
Max Gust Speed 14 mph    
Visibility 7 miles    
Events Snow    
T = Trace of Precipitation, MM = Missing Value Source: NWS Daily Summary

Daily Weather History Graph

Daily Weather History Graph

Search for Another Location

Airport or City:

Trip Planner

Search our weather history database for the weather conditions in past years. The results will help you decide how hot, cold, wet, or windy it might be!

Date:

Astronomy

Jan. 13, 2013 Rise Set
Actual Time 8:18 AM MST 5:12 PM MST
Civil Twilight 7:44 AM MST 5:46 PM MST
Nautical Twilight 7:06 AM MST 6:24 PM MST
Astronomical Twilight 6:29 AM MST 7:01 PM MST
Moon 9:08 AM MST (1/13) 8:08 PM MST (1/13)
Length of Visible Light 10h 02m
Length of Day
8h 54m
Waxing Crescent, 5% of the Moon is Illuminated
Jan 13
Waxing Crescent
Jan 18
First Quarter
Jan 26
Full
Feb 3
Last Quarter
Feb 10
New

Hourly Weather History & Observations

Time (MST) Temp. Windchill Dew Point Humidity Pressure Visibility Wind Dir Wind Speed Gust Speed Precip Events Conditions
12:53 AM 7.0 °F -1.7 °F 3.9 °F 87% 30.40 in 10.0 mi East 4.6 mph - N/A   Overcast
1:27 AM 8.6 °F - 3.2 °F 79% 30.22 in 10.0 mi Calm Calm - N/A   Overcast
1:43 AM 8.6 °F 0.1 °F 5.0 °F 85% 30.23 in 10.0 mi East 4.6 mph - N/A   Overcast
1:53 AM 9.0 °F -2.2 °F 5.0 °F 84% 30.41 in 10.0 mi SE 6.9 mph - N/A   Overcast
2:05 AM 8.6 °F -3.7 °F 3.2 °F 79% 30.23 in 10.0 mi ESE 8.1 mph - N/A   Overcast
2:53 AM 8.1 °F 1.4 °F 3.9 °F 83% 30.43 in 8.0 mi SE 3.5 mph - N/A   Overcast
3:53 AM 8.1 °F - 3.9 °F 83% 30.44 in 6.0 mi Calm Calm - 0.00 in Snow Light Snow
4:25 AM 8.6 °F - 5.0 °F 85% 30.24 in 4.0 mi Calm Calm - 0.00 in Snow Light Snow
4:35 AM 8.6 °F 2.0 °F 5.0 °F 85% 30.24 in 3.0 mi SE 3.5 mph - 0.00 in Snow Light Snow
4:53 AM 8.6 °F 0.1 °F 5.0 °F 85% 30.24 in 3.0 mi SE 4.6 mph - N/A Snow Light Snow
5:03 AM 8.6 °F 0.1 °F 5.0 °F 85% 30.24 in 2.5 mi SE 4.6 mph - 0.00 in Snow Light Snow
5:20 AM 8.6 °F 0.1 °F 5.0 °F 85% 30.24 in 3.0 mi SE 4.6 mph - 0.00 in Snow Light Snow
5:53 AM 7.0 °F 0.1 °F 3.9 °F 87% 30.43 in 3.0 mi SSE 3.5 mph - 0.00 in Snow Light Snow
6:04 AM 6.8 °F - 3.2 °F 85% 30.24 in 3.0 mi Calm Calm - 0.00 in Snow Light Snow
6:53 AM 7.0 °F 0.1 °F 3.9 °F 87% 30.45 in 5.0 mi SE 3.5 mph - 0.00 in   Overcast
7:44 AM 6.8 °F -4.8 °F 1.4 °F 79% 30.28 in 7.0 mi ESE 6.9 mph - N/A   Overcast
7:53 AM 6.1 °F -5.6 °F 1.9 °F 83% 30.48 in 8.0 mi ESE 6.9 mph - N/A   Overcast
8:06 AM 6.8 °F -4.8 °F 1.4 °F 79% 30.29 in 10.0 mi ESE 6.9 mph - N/A   Overcast
8:22 AM 6.8 °F -4.8 °F 1.4 °F 79% 30.29 in 8.0 mi ESE 6.9 mph - N/A   Overcast
8:53 AM 7.0 °F -1.7 °F 1.9 °F 80% 30.49 in 9.0 mi ESE 4.6 mph - N/A   Overcast
9:53 AM 7.0 °F -1.7 °F 3.0 °F 84% 30.49 in 3.0 mi SE 4.6 mph - 0.00 in Snow Light Snow
9:59 AM 6.8 °F - 3.2 °F 85% 30.30 in 2.5 mi Calm Calm - 0.00 in Snow Light Snow
10:30 AM 6.8 °F - 3.2 °F 85% 30.31 in 3.0 mi Calm Calm - N/A Snow Light Snow
10:53 AM 8.1 °F - 3.9 °F 83% 30.50 in 4.0 mi Calm Calm - 0.00 in   Overcast
11:02 AM 10.4 °F - 5.0 °F 79% 30.31 in 4.0 mi Calm Calm - N/A   Haze
11:53 AM 10.0 °F - 5.0 °F 80% 30.49 in 5.0 mi Calm Calm - N/A   Haze
12:53 PM 10.9 °F - 5.0 °F 77% 30.48 in 4.0 mi Calm Calm - N/A   Haze
1:53 PM 12.0 °F - 6.1 °F 77% 30.46 in 10.0 mi Calm Calm - N/A   Clear
2:53 PM 12.9 °F - 6.1 °F 74% 30.46 in 10.0 mi Calm Calm - N/A   Clear
3:53 PM 14.0 °F - 5.0 °F 67% 30.45 in 10.0 mi Calm Calm - N/A   Clear
4:53 PM 7.0 °F - 3.9 °F 87% 30.46 in 9.0 mi Calm Calm - N/A   Clear
5:53 PM 3.0 °F - -0.9 °F 84% 30.48 in 10.0 mi Calm Calm - N/A   Clear
6:53 PM 3.0 °F -4.4 °F -0.0 °F 87% 30.49 in 10.0 mi East 3.5 mph - N/A   Scattered Clouds
7:53 PM 7.0 °F - 3.9 °F 87% 30.49 in 10.0 mi Calm Calm - N/A   Overcast
8:53 PM 7.0 °F - 3.9 °F 87% 30.50 in 10.0 mi Calm Calm - N/A   Overcast
9:53 PM 8.1 °F - 3.9 °F 83% 30.49 in 10.0 mi Calm Calm - N/A   Overcast
10:53 PM 8.1 °F - 5.0 °F 87% 30.49 in 10.0 mi Calm Calm - N/A   Overcast
11:53 PM 9.0 °F 2.4 °F 6.1 °F 88% 30.49 in 10.0 mi SSE 3.5 mph - N/A   Overcast